Gage, OK

12:37 PM CST on February 19, 2018 (GMT -0600)
Gage

Weather History for KGAG - February, 2014

Change the Weather History Date:

Friday, February 28, 2014

  Actual Average Record
Temperature  
Mean Temperature 51 °F -  
Max Temperature 66 °F 58 °F 86 °F (2006)
Min Temperature 36 °F 31 °F 0 °F (1962)
Degree Days  
Heating Degree Days 14    
Growing Degree Days 1 (Base 50)    
Moisture  
Dew Point 31 °F    
Average Humidity 53    
Maximum Humidity 89    
Minimum Humidity 28    
Precipitation  
Precipitation 0.00 in - - ()
Sea Level Pressure  
Sea Level Pressure 29.67 in    
Wind  
Wind Speed 13 mph (ESE)    
Max Wind Speed 29 mph    
Max Gust Speed 38 mph    
Visibility 9 miles    
Events      
Averages and records for this station are not official NWS values.
T = Trace of Precipitation, MM = Missing Value Source: NWS Daily Summary

Daily Weather History Graph

Daily Weather History Graph

Search for Another Location

Airport or City:

Trip Planner

Search our weather history database for the weather conditions in past years. The results will help you decide how hot, cold, wet, or windy it might be!

Date:

Astronomy

Feb. 28, 2014 Rise Set
Actual Time 7:10 AM CST 6:32 PM CST
Civil Twilight 6:44 AM CST 6:58 PM CST
Nautical Twilight 6:15 AM CST 7:28 PM CST
Astronomical Twilight 5:45 AM CST 7:58 PM CST
Moon 6:26 AM CST (2/28) 6:11 PM CST (2/28)
Length of Visible Light 12h 13m
Length of Day
11h 22m
Waning Crescent, 1% of the Moon is Illuminated
Feb 28
Waning Crescent
Mar 1
New
Mar 8
First Quarter
Mar 16
Full
Mar 23
Last Quarter

Hourly Weather History & Observations

Time (CST) Temp. Windchill Dew Point Humidity Pressure Visibility Wind Dir Wind Speed Gust Speed Precip Events Conditions
12:53 AM 43.0 °F 32.7 °F 21.0 °F 42% 29.58 in 10.0 mi South 28.8 mph 38.0 mph N/A   Clear
1:53 AM 43.0 °F 35.1 °F 23.0 °F 45% 29.56 in 10.0 mi South 17.3 mph 27.6 mph N/A   Clear
2:53 AM 43.0 °F 36.4 °F 25.0 °F 49% 29.50 in 10.0 mi SSE 12.7 mph 20.7 mph N/A   Scattered Clouds
3:53 AM 42.1 °F 37.1 °F 26.1 °F 53% 29.49 in 10.0 mi SSE 8.1 mph 20.7 mph N/A   Mostly Cloudy
4:53 AM 39.9 °F 31.8 °F 26.1 °F 58% 29.51 in 10.0 mi South 15.0 mph - N/A   Mostly Cloudy
5:53 AM 37.9 °F 30.5 °F 26.1 °F 62% 29.52 in 10.0 mi SSE 11.5 mph - N/A   Clear
6:53 AM 36.0 °F 32.1 °F 26.1 °F 67% 29.55 in 10.0 mi SSE 4.6 mph - N/A   Clear
7:53 AM 36.0 °F 32.1 °F 27.0 °F 70% 29.59 in 10.0 mi ESE 4.6 mph - N/A   Clear
8:53 AM 42.1 °F 36.6 °F 28.9 °F 60% 29.60 in 10.0 mi SSE 9.2 mph - N/A   Clear
9:53 AM 46.0 °F 42.5 °F 30.0 °F 54% 29.62 in 10.0 mi SSW 6.9 mph - N/A   Clear
10:53 AM 52.0 °F - 30.9 °F 45% 29.64 in 10.0 mi West 8.1 mph - N/A   Clear
11:53 AM 57.9 °F - 32.0 °F 37% 29.65 in 10.0 mi Variable 6.9 mph - N/A   Clear
12:53 PM 63.0 °F - 34.0 °F 34% 29.65 in 10.0 mi WNW 8.1 mph - N/A   Clear
1:53 PM 64.9 °F - 34.0 °F 32% 29.63 in 10.0 mi Variable 3.5 mph - N/A   Clear
2:53 PM 66.0 °F - 33.1 °F 29% 29.65 in 10.0 mi North 10.4 mph - N/A   Clear
3:53 PM 66.9 °F - 33.1 °F 28% 29.67 in 10.0 mi NNW 5.8 mph - N/A   Clear
4:53 PM 66.0 °F - 32.0 °F 28% 29.69 in 10.0 mi NNE 4.6 mph - N/A   Clear
5:53 PM 61.0 °F - 32.0 °F 34% 29.73 in 10.0 mi NNE 9.2 mph - N/A   Clear
6:53 PM 52.0 °F - 32.0 °F 47% 29.78 in 10.0 mi NE 9.2 mph - N/A   Clear
7:53 PM 50.0 °F - 37.0 °F 61% 29.81 in 10.0 mi ENE 9.2 mph - N/A   Clear
8:53 PM 46.0 °F 42.5 °F 37.9 °F 73% 29.86 in 9.0 mi ENE 6.9 mph - N/A   Clear
9:53 PM 44.1 °F 39.5 °F 37.9 °F 79% 29.87 in 7.0 mi East 8.1 mph - N/A   Clear
10:53 PM 41.0 °F 35.8 °F 37.0 °F 86% 29.90 in 6.0 mi ENE 8.1 mph - N/A   Clear
11:53 PM 39.0 °F 34.0 °F 36.0 °F 89% 29.91 in 4.0 mi ENE 6.9 mph - N/A   Clear